Le nostre stazioni meteo in Italia

Pubblicità
Il mio iltempo24.it
Passo Rolle, Italia (16021): Temperatura & dewpoint: 12.01.2020 10:00:00 - 18.01.2020 10:00:00 (CET)Passo Rolle, Italia (16021): velocità del vento: 12.01.2020 10:00:00 - 18.01.2020 10:00:00 (CET)Passo Rolle, Italia (16021): direzione del vento: 12.01.2020 10:00:00 - 18.01.2020 10:00:00 (CET)Passo Rolle, Italia (16021): visibility: 12.01.2020 10:00:00 - 18.01.2020 10:00:00 (CET)
Data & Tempo tt [°C] td [°C] ff [km/h] ff [kn] dd vv [km]
18.01.2020 10:00:00 -4,0 -4,3 16 9 O 0,1
18.01.2020 09:00:00 -5,0 -5,0 11 6 O -
18.01.2020 08:00:00 -4,0 -4,0 8 4 NNO 0,1
18.01.2020 07:00:00 -3,6 -5,3 8 4 NNO 6
18.01.2020 06:00:00 -4,0 -6,0 5 3 NNO 6
18.01.2020 05:00:00 -4,0 -5,0 8 4 NNO 6
18.01.2020 04:00:00 -4,6 -4,9 5 3 SSO 6
18.01.2020 03:00:00 - - - - - -
18.01.2020 02:00:00 - - - - - -
18.01.2020 01:00:00 -4,8 -5,6 9 5 N 6
18.01.2020 00:00:00 - - - - - -
17.01.2020 23:00:00 - - - - - -
17.01.2020 22:00:00 -4,2 -5,0 9 5 N 6
17.01.2020 21:00:00 - - - - - -
17.01.2020 20:00:00 - - - - - -
17.01.2020 19:00:00 -3,0 -3,4 5 3 NO 8
17.01.2020 18:00:00 - - - - - -
17.01.2020 17:00:00 -3,0 -4,0 4 2 OSO 10
17.01.2020 16:00:00 -1,4 -4,1 15 8 SE 20
17.01.2020 15:00:00 -1,0 -4,0 5 3 SSE 10
17.01.2020 14:00:00 -1,0 -7,0 4 2 N 10
17.01.2020 13:00:00 -1,6 -6,0 4 2 N 20
17.01.2020 12:00:00 -2,0 -7,0 2 1 - 10
17.01.2020 11:00:00 -3,0 -6,0 5 3 NNE 10
17.01.2020 10:00:00 -4,0 -7,3 5 3 NNO 20
17.01.2020 09:00:00 -4,0 -7,0 5 3 NO 10
17.01.2020 08:00:00 -5,0 -9,0 5 3 NNO 10
17.01.2020 07:00:00 -4,8 -8,7 8 4 N 20
17.01.2020 06:00:00 -5,0 -8,0 5 3 ONO 10
17.01.2020 05:00:00 -5,0 -9,0 2 1 ENE 10
17.01.2020 04:00:00 -4,2 -8,8 8 4 ESE 20
17.01.2020 03:00:00 - - - - - -
17.01.2020 02:00:00 - - - - - -
17.01.2020 01:00:00 -4,0 -9,8 8 4 E 30
17.01.2020 00:00:00 - - - - - -
16.01.2020 23:00:00 - - - - - -
16.01.2020 22:00:00 -2,8 -9,9 8 4 N 30
16.01.2020 21:00:00 - - - - - -
16.01.2020 20:00:00 - - - - - -
16.01.2020 19:00:00 -2,2 -9,3 8 4 E 40
16.01.2020 18:00:00 -2,0 -9,0 2 1 E 10
16.01.2020 17:00:00 -1,0 -8,0 8 4 ESE 10
16.01.2020 16:00:00 -0,8 -8,9 11 6 ESE 50
16.01.2020 15:00:00 0,0 -9,0 9 5 SE 10
16.01.2020 14:00:00 0,0 -9,0 11 6 SE 10
16.01.2020 13:00:00 0,4 -10,7 4 2 E 50
16.01.2020 12:00:00 0,0 -10,0 15 8 ESE 10
16.01.2020 11:00:00 0,0 -12,0 11 6 ESE 10
16.01.2020 10:00:00 -1,0 -12,6 9 5 ESE 50
16.01.2020 09:00:00 -2,0 -13,0 5 3 E 10
16.01.2020 08:00:00 -3,0 -13,0 8 4 E 10
16.01.2020 07:00:00 -2,8 -11,5 11 6 SO 12
16.01.2020 06:00:00 -3,0 -11,0 4 2 SO 10
16.01.2020 05:00:00 -3,0 -9,0 4 2 NO 10
16.01.2020 04:00:00 -3,0 -7,3 5 3 O 12
16.01.2020 03:00:00 - - - - - -
16.01.2020 02:00:00 - - - - - -
16.01.2020 01:00:00 -4,4 -4,8 16 9 NNO 12
16.01.2020 00:00:00 - - - - - -
15.01.2020 23:00:00 - - - - - -
15.01.2020 22:00:00 -4,2 -5,3 13 7 NNO 12
15.01.2020 21:00:00 - - - - - -
15.01.2020 20:00:00 - - - - - -
15.01.2020 19:00:00 -3,8 -4,1 8 4 NO 12
15.01.2020 18:00:00 -4,0 -4,0 11 6 NNO 10
15.01.2020 17:00:00 -3,0 -5,0 9 5 NNO 10
15.01.2020 16:00:00 -1,8 -5,1 9 5 NO 50
15.01.2020 15:00:00 -1,0 -5,0 8 4 ONO 10
15.01.2020 14:00:00 -1,0 -5,0 9 5 ONO 10
15.01.2020 13:00:00 -2,0 -6,2 9 5 ONO 50
15.01.2020 12:00:00 -2,0 -7,0 8 4 ONO 10
15.01.2020 11:00:00 -1,0 -11,0 5 3 ONO 10
15.01.2020 10:00:00 -2,0 -9,4 9 5 NO 50
15.01.2020 09:00:00 -4,0 -8,0 5 3 NNO 10
15.01.2020 08:00:00 -5,0 -7,0 5 3 NO 10
15.01.2020 07:00:00 -4,0 -8,3 5 3 NO 20
15.01.2020 06:00:00 -4,0 -11,0 9 5 NO 10
15.01.2020 05:00:00 -4,0 -11,0 8 4 NNO 10
15.01.2020 04:00:00 -3,6 -11,1 5 3 O 12
15.01.2020 03:00:00 - - - - - -
15.01.2020 02:00:00 - - - - - -
15.01.2020 01:00:00 -3,4 -8,5 4 2 N 12
15.01.2020 00:00:00 - - - - - -
14.01.2020 23:00:00 - - - - - -
14.01.2020 22:00:00 -3,0 -8,8 5 3 NO 12
14.01.2020 21:00:00 - - - - - -
14.01.2020 20:00:00 - - - - - -
14.01.2020 19:00:00 -2,6 -9,7 5 3 O 12
14.01.2020 18:00:00 -4,0 -10,0 11 6 NNO 10
14.01.2020 17:00:00 -4,0 -9,0 9 5 NO 10
14.01.2020 16:00:00 -3,0 -9,0 11 6 NO 35
14.01.2020 15:00:00 -3,0 -9,0 9 5 ONO 10
14.01.2020 14:00:00 - - - - - -
14.01.2020 13:00:00 -3,6 -10,7 9 5 NNO 75
14.01.2020 12:00:00 -4,0 -13,0 5 3 O 10
14.01.2020 11:00:00 -4,0 -13,0 5 3 O 10
14.01.2020 10:00:00 -5,2 -13,1 11 6 NO 75
14.01.2020 09:00:00 -4,0 -16,0 8 4 ONO 10
14.01.2020 08:00:00 -5,0 -16,0 5 3 NO 10
14.01.2020 07:00:00 -5,0 -14,1 5 3 NNO 20
14.01.2020 06:00:00 -5,0 -14,0 5 3 NO 10
14.01.2020 05:00:00 -5,0 -14,0 5 3 ONO 10
14.01.2020 04:00:00 -4,8 -14,4 5 3 ONO 10
14.01.2020 03:00:00 - - - - - -
14.01.2020 02:00:00 - - - - - -
14.01.2020 01:00:00 -4,2 -15,5 5 3 O 10
14.01.2020 00:00:00 - - - - - -
13.01.2020 23:00:00 - - - - - -
13.01.2020 22:00:00 -4,2 -15,5 9 5 N 10
13.01.2020 21:00:00 - - - - - -
13.01.2020 20:00:00 - - - - - -
13.01.2020 19:00:00 -3,0 -15,6 4 2 NNO 10
13.01.2020 18:00:00 -3,0 -15,0 4 2 ONO 10
13.01.2020 17:00:00 -2,0 -15,0 5 3 ESE 10
13.01.2020 16:00:00 -0,8 -14,7 11 6 ESE 75
13.01.2020 15:00:00 0,0 -14,0 8 4 SE 10
13.01.2020 14:00:00 0,0 -15,0 9 5 SE 10
13.01.2020 13:00:00 0,2 -17,1 9 5 ESE 75
13.01.2020 12:00:00 -1,0 -17,0 13 7 SE 10
13.01.2020 11:00:00 -1,0 -17,0 16 9 SE 10
13.01.2020 10:00:00 -2,2 -21,6 15 8 SE 75
13.01.2020 09:00:00 -2,0 -23,0 13 7 ESE 10
13.01.2020 08:00:00 -1,0 -27,0 13 7 ESE 10
13.01.2020 07:00:00 -0,8 -25,0 9 5 ESE 20
13.01.2020 06:00:00 0,0 -26,0 13 7 SE 10
13.01.2020 05:00:00 -1,0 -25,0 8 4 SE 10
13.01.2020 04:00:00 -1,2 -26,1 15 8 E 10
13.01.2020 03:00:00 - - - - - -
13.01.2020 02:00:00 - - - - - -
13.01.2020 01:00:00 0,0 -25,2 8 4 E 10
13.01.2020 00:00:00 - - - - - -
12.01.2020 23:00:00 - - - - - -
12.01.2020 22:00:00 0,0 -24,4 2 1 OSO 10
12.01.2020 21:00:00 - - - - - -
12.01.2020 20:00:00 - - - - - -
12.01.2020 19:00:00 -1,2 -22,5 2 1 OSO 10
12.01.2020 18:00:00 -1,0 -23,0 2 1 OSO 10
12.01.2020 17:00:00 0,0 -27,0 4 2 NNO 10
12.01.2020 16:00:00 0,8 -29,8 4 2 ONO 75
12.01.2020 15:00:00 1,0 -24,0 8 4 ONO 10
12.01.2020 14:00:00 1,0 -25,0 9 5 NNO 10
12.01.2020 13:00:00 0,4 -24,8 4 2 NO 50
12.01.2020 12:00:00 0,0 -23,0 5 3 OSO 10
12.01.2020 11:00:00 -1,0 -26,0 5 3 NO 10
12.01.2020 10:00:00 -2,4 -24,1 11 6 NNO 50

tt = Temperatura
td = dewpoint
ff = velocità del vento
dd = direzione del vento
vv = visibility

Stazioni seguenti

WeatherPro
AMSI
MeteoEarth